Regional Weather Roundup
Issued by NWS

Home | Current Version | Previous Version | Graphics & Text | Print | Product List | Glossary On
Versions: 1 2 3 4 5 6 7 8 9 10 11 12 13 14 15 16 17 18 19 20 21 22 23 24 25 26 27 28
000
ASUS45 KCYS 220910
RWRWY

WYOMING REGIONAL WEATHER ROUNDUP
NATIONAL WEATHER SERVICE CHEYENNE WY
300 AM MDT TUE APR 22 2014

NOTE:  "FAIR" INDICATES FEW OR NO CLOUDS BELOW 12,000 FEET
WITH NO SIGNIFICANT WEATHER AND/OR OBSTRUCTIONS TO VISIBILITY.

WYZ001-221000-
YELLOWSTONE NATIONAL PARK

CITY           SKY/WX    TMP DP  RH WIND       PRES   REMARKS
LK YELLOWSTONE   N/A     40  30  67 VRB5      30.09S
W YELLOWSTONE  NOT AVBL

$$
WYZ002>013-054>058-071-098>099-221000-
NORTHERN WYOMING

CITY           SKY/WX    TMP DP  RH WIND       PRES   REMARKS
JACKSON        CLOUDY    45  30  57 N3        29.99F
CODY           MOCLDY    45  28  53 CALM      29.91F
GREYBULL       CLOUDY    51  32  48 NW3       29.89F
WORLAND        PTCLDY    40  31  70 CALM      29.88F
SHERIDAN         N/A     39  28  65 E3          N/A
BUFFALO        PTCLDY    52  30  43 SE12      29.93F
GILLETTE       PTCLDY    49  31  49 S18       29.95F
HULETT         FAIR      50  30  46 CALM      29.96
NEWCASTLE      FAIR      54  27  35 SE15G23   29.99

$$
WYZ014>020-022>026-101>103-221000-
CENTRAL WYOMING

CITY           SKY/WX    TMP DP  RH WIND       PRES   REMARKS
BIG PINEY      MOCLDY    42  26  53 N5        30.04F
PINEDALE       LGT RAIN  43  30  61 E3        30.06F
DUBOIS         FAIR      37  23  56 W6        30.02S WCI  33
LANDER         CLEAR     46  24  42 NW3       29.94F
RIVERTON       CLEAR     41  21  44 NW12      29.94F
CASPER         PTCLDY    38  32  79 CALM      29.97F
DOUGLAS        PTCLDY    41  34  76 CALM      29.99F

$$
WYZ021-027>030-104>119-221000-
SOUTHERN WYOMING

CITY           SKY/WX    TMP DP  RH WIND       PRES   REMARKS
EVANSTON         N/A     50  28  42 S9        30.00F
KEMMERER       PTSUNNY   46  27  46 CALM      30.02F
FORT BRIDGER   FAIR      49  29  47 S12       30.04F
ROCK SPRINGS   CLOUDY    53  26  35 SW7       30.02F
DIXON          FAIR      41  29  62 CALM      30.10F
RAWLINS        MOCLDY    36  16  44 CALM      30.05F
SARATOGA       FAIR      43  27  52 SE12      30.10F
LARAMIE        CLEAR     35  26  69 SW8       30.11F WCI  29
CHEYENNE       CLEAR     42  32  67 W6        30.07F
TORRINGTON     CLEAR     43  30  60 E13       30.00F
PINE BLUFFS    FAIR      45  32  61 SW9       30.07S

$$



USA.gov is the U.S. government's official web portal to all federal, state and local government web resources and services.